Location: downtown San Diego
(32.7310°N, 117.1990°W)
Time: 17:33:49
(UTC-07:00)

Cosmos 1980 Rocket - Pass Details

Date: 19 May 2017
Orbit: 830 x 849 km, 71.0° (Epoch: 25 July)

Event Time Altitude Azimuth Distance (km) Brightness Sun altitude
Rises 23:20:08 0° 360° (N) 3,405 6.2 -33.4°
Reaches altitude 10° 23:23:57 10° 25° (NNE) 2,463 5.0 -33.8°
Enters shadow 23:26:23 14° 51° (NE) 2,198 4.5 -34.0°
